When you browse on this site, cookies collect data to enhance your experience and personalize the content and advertising you see.
Visit our Privacy Policy to learn more. By continuing to use the site, you agree to this use of cookies and data.
  • în România
  • Lista ţărilor
  • Pe 7 zile
  • Temperatura apei
  • Meteo pe hartă
  • Widget-uri
  • user-avatar
    Intrare

    Meteo pe oră la Macapa

    Astăzi, 20 Februarie, Joi

    Timp Temperatura Precipitaţii Vânt Presiune Umiditate
    00:00 +26°C° 0.1 mm 3 m/s 758 mmHg 94%
    01:00 +25°C° 0.3 mm 3 m/s 757 mmHg 94%
    02:00 +25°C° 0.3 mm 2 m/s 757 mmHg 94%
    03:00 +25°C° 0.3 mm 2 m/s 757 mmHg 95%
    04:00 +25°C° 0.3 mm 2 m/s 757 mmHg 95%
    05:00 +25°C° 0.3 mm 2 m/s 756 mmHg 95%
    06:00 +25°C° 0.3 mm 2 m/s 756 mmHg 95%
    07:00 +25°C° 0.2 mm 2 m/s 757 mmHg 95%
    08:00 +25°C° 0.2 mm 2 m/s 758 mmHg 94%
    09:00 +26°C° 0.2 mm 2 m/s 758 mmHg 93%
    10:00 +26°C° 0 mm 2 m/s 758 mmHg 92%
    11:00 +26°C° 0 mm 2 m/s 758 mmHg 91%
    12:00 +27°C° 0 mm 2 m/s 758 mmHg 90%
    13:00 +27°C° 0.1 mm 2 m/s 757 mmHg 87%
    14:00 +28°C° 0.1 mm 2 m/s 756 mmHg 84%
    15:00 +28°C° 0.1 mm 2 m/s 756 mmHg 81%
    16:00 +28°C° 0.1 mm 2 m/s 756 mmHg 83%
    17:00 +28°C° 0.1 mm 2 m/s 756 mmHg 84%
    18:00 +27°C° 0.1 mm 2 m/s 756 mmHg 86%
    19:00 +27°C° 0 mm 2 m/s 756 mmHg 88%
    20:00 +26°C° 0 mm 3 m/s 757 mmHg 89%
    21:00 +26°C° 0 mm 3 m/s 757 mmHg 90%
    22:00 +26°C° 0 mm 2 m/s 758 mmHg 90%
    23:00 +26°C° 0 mm 2 m/s 758 mmHg 91%

    Mâine, 21 Februarie, Vineri

    Timp Temperatura Precipitaţii Vânt Presiune Umiditate
    00:00 +26°C° 0 mm 2 m/s 758 mmHg 91%
    01:00 +26°C° 0 mm 2 m/s 758 mmHg 91%
    02:00 +26°C° 0 mm 2 m/s 757 mmHg 91%
    03:00 +26°C° 0 mm 2 m/s 756 mmHg 90%
    10:00 +29°C° 0 mm 3 m/s 758 mmHg 78%
    11:00 +30°C° 0 mm 2 m/s 758 mmHg 74%
    12:00 +31°C° 0 mm 2 m/s 758 mmHg 69%
    13:00 +31°C° 0.3 mm 2 m/s 757 mmHg 69%
    14:00 +32°C° 0.3 mm 2 m/s 756 mmHg 69%
    15:00 +32°C° 0.3 mm 2 m/s 756 mmHg 69%
    16:00 +31°C° 1.1 mm 2 m/s 756 mmHg 75%
    17:00 +30°C° 1.1 mm 3 m/s 756 mmHg 82%
    18:00 +29°C° 1.1 mm 3 m/s 756 mmHg 89%
    19:00 +28°C° 0.9 mm 3 m/s 757 mmHg 90%
    20:00 +27°C° 0.9 mm 3 m/s 757 mmHg 92%
    21:00 +26°C° 0.9 mm 2 m/s 758 mmHg 94%
    22:00 +26°C° 0.3 mm 2 m/s 758 mmHg 94%
    23:00 +26°C° 0.3 mm 2 m/s 758 mmHg 95%

    Poimâine, 22 Februarie, Sâmbătă

    Timp Temperatura Precipitaţii Vânt Presiune Umiditate
    00:00 +26°C° 0.3 mm 2 m/s 759 mmHg 96%
    01:00 +26°C° 0.2 mm 2 m/s 758 mmHg 96%
    02:00 +26°C° 0.2 mm 2 m/s 757 mmHg 96%
    03:00 +25°C° 0.2 mm 2 m/s 757 mmHg 97%
    04:00 +25°C° 0.1 mm 2 m/s 757 mmHg 97%
    05:00 +25°C° 0.1 mm 1 m/s 757 mmHg 97%
    06:00 +25°C° 0.1 mm 1 m/s 758 mmHg 97%
    07:00 +26°C° 0.2 mm 1 m/s 758 mmHg 94%
    08:00 +27°C° 0.2 mm 1 m/s 759 mmHg 91%
    09:00 +28°C° 0.2 mm 1 m/s 759 mmHg 88%
    10:00 +29°C° 0.4 mm 2 m/s 759 mmHg 84%
    11:00 +30°C° 0.4 mm 2 m/s 759 mmHg 81%
    12:00 +31°C° 0.4 mm 3 m/s 758 mmHg 77%
    13:00 +31°C° 0.8 mm 3 m/s 758 mmHg 78%
    14:00 +31°C° 0.8 mm 3 m/s 757 mmHg 79%
    15:00 +30°C° 0.8 mm 4 m/s 756 mmHg 80%
    16:00 +30°C° 0.5 mm 3 m/s 756 mmHg 83%
    17:00 +29°C° 0.5 mm 3 m/s 756 mmHg 85%
    18:00 +29°C° 0.5 mm 3 m/s 756 mmHg 87%
    19:00 +28°C° 0.1 mm 3 m/s 757 mmHg 90%
    20:00 +27°C° 0.1 mm 3 m/s 758 mmHg 92%
    21:00 +27°C° 0.1 mm 3 m/s 758 mmHg 94%
    22:00 +27°C° 0 mm 3 m/s 758 mmHg 94%
    23:00 +26°C° 0 mm 2 m/s 758 mmHg 95%

    23 Februarie, Duminică

    Timp Temperatura Precipitaţii Vânt Presiune Umiditate
    00:00 +26°C° 0 mm 2 m/s 759 mmHg 96%
    01:00 +26°C° 0.1 mm 2 m/s 758 mmHg 96%
    02:00 +26°C° 0.1 mm 2 m/s 758 mmHg 96%
    03:00 +26°C° 0.1 mm 2 m/s 757 mmHg 97%
    04:00 +26°C° 0.1 mm 2 m/s 757 mmHg 97%
    05:00 +25°C° 0.1 mm 2 m/s 757 mmHg 97%
    06:00 +25°C° 0.1 mm 2 m/s 757 mmHg 97%
    07:00 +26°C° 0.1 mm 2 m/s 758 mmHg 94%
    08:00 +27°C° 0.1 mm 2 m/s 759 mmHg 91%
    09:00 +28°C° 0.1 mm 2 m/s 759 mmHg 88%
    10:00 +29°C° 0.6 mm 3 m/s 759 mmHg 85%
    11:00 +30°C° 0.6 mm 3 m/s 759 mmHg 83%
    12:00 +30°C° 0.6 mm 3 m/s 759 mmHg 80%
    13:00 +30°C° 0.7 mm 3 m/s 758 mmHg 79%
    14:00 +31°C° 0.7 mm 3 m/s 757 mmHg 78%
    15:00 +32°C° 0.7 mm 4 m/s 756 mmHg 78%
    16:00 +30°C° 0.2 mm 3 m/s 756 mmHg 80%
    17:00 +30°C° 0.2 mm 3 m/s 756 mmHg 82%
    18:00 +29°C° 0.2 mm 3 m/s 756 mmHg 84%
    19:00 +28°C° 0 mm 3 m/s 757 mmHg 86%
    20:00 +27°C° 0 mm 3 m/s 757 mmHg 89%
    21:00 +27°C° 0 mm 3 m/s 758 mmHg 91%
    22:00 +26°C° 0 mm 3 m/s 758 mmHg 92%
    23:00 +26°C° 0 mm 3 m/s 758 mmHg 93%

    24 Februarie, Luni

    Timp Temperatura Precipitaţii Vânt Presiune Umiditate
    00:00 +26°C° 0 mm 3 m/s 758 mmHg 94%
    01:00 +26°C° 0 mm 3 m/s 758 mmHg 94%
    02:00 +26°C° 0 mm 3 m/s 758 mmHg 95%
    03:00 +26°C° 0 mm 3 m/s 757 mmHg 95%
    04:00 +25°C° 0 mm 2 m/s 757 mmHg 96%
    05:00 +25°C° 0 mm 2 m/s 757 mmHg 96%
    06:00 +25°C° 0 mm 2 m/s 757 mmHg 96%
    07:00 +26°C° 0.1 mm 3 m/s 758 mmHg 92%
    08:00 +27°C° 0.1 mm 3 m/s 758 mmHg 88%
    09:00 +28°C° 0.1 mm 3 m/s 759 mmHg 85%
    10:00 +29°C° 0.2 mm 3 m/s 759 mmHg 80%
    11:00 +30°C° 0.2 mm 3 m/s 758 mmHg 76%
    12:00 +33°C° 0.2 mm 3 m/s 758 mmHg 71%
    13:00 +32°C° 1.3 mm 4 m/s 757 mmHg 74%
    14:00 +32°C° 1.3 mm 4 m/s 757 mmHg 76%
    15:00 +32°C° 1.3 mm 4 m/s 756 mmHg 79%
    16:00 +30°C° 0.7 mm 4 m/s 756 mmHg 81%
    17:00 +29°C° 0.7 mm 4 m/s 756 mmHg 84%
    18:00 +29°C° 0.7 mm 3 m/s 756 mmHg 87%
    19:00 +28°C° 0.4 mm 3 m/s 756 mmHg 89%
    20:00 +27°C° 0.4 mm 3 m/s 757 mmHg 90%
    21:00 +27°C° 0.4 mm 3 m/s 758 mmHg 92%
    22:00 +27°C° 0 mm 3 m/s 758 mmHg 93%
    23:00 +26°C° 0 mm 3 m/s 758 mmHg 93%

    25 Februarie, Marţi

    Timp Temperatura Precipitaţii Vânt Presiune Umiditate
    00:00 +26°C° 0 mm 3 m/s 758 mmHg 94%
    01:00 +26°C° 0 mm 3 m/s 758 mmHg 94%
    02:00 +26°C° 0 mm 3 m/s 757 mmHg 95%
    03:00 +25°C° 0 mm 3 m/s 757 mmHg 95%
    04:00 +25°C° 0 mm 3 m/s 757 mmHg 95%
    05:00 +25°C° 0 mm 3 m/s 757 mmHg 96%
    06:00 +25°C° 0 mm 2 m/s 757 mmHg 96%
    07:00 +26°C° 0 mm 2 m/s 758 mmHg 92%
    08:00 +27°C° 0 mm 3 m/s 758 mmHg 88%
    09:00 +28°C° 0 mm 3 m/s 759 mmHg 84%
    10:00 +29°C° 0.5 mm 3 m/s 759 mmHg 81%
    11:00 +30°C° 0.5 mm 2 m/s 758 mmHg 78%
    12:00 +31°C° 0.5 mm 2 m/s 758 mmHg 75%
    13:00 +31°C° 1.6 mm 3 m/s 757 mmHg 77%
    14:00 +31°C° 1.6 mm 3 m/s 757 mmHg 79%
    15:00 +30°C° 1.6 mm 4 m/s 756 mmHg 81%
    16:00 +30°C° 1.7 mm 3 m/s 756 mmHg 84%
    17:00 +29°C° 1.7 mm 3 m/s 756 mmHg 87%
    18:00 +28°C° 1.7 mm 3 m/s 756 mmHg 91%
    19:00 +27°C° 0.9 mm 3 m/s 756 mmHg 92%
    20:00 +27°C° 0.9 mm 3 m/s 757 mmHg 93%
    21:00 +26°C° 0.9 mm 3 m/s 757 mmHg 94%
    22:00 +26°C° 0 mm 3 m/s 757 mmHg 94%
    23:00 +26°C° 0 mm 3 m/s 758 mmHg 94%
    Arată mai mult